Time,TemperatureF,DewpointF,PressureIn,WindDirection,WindDirectionDegrees,WindSpeedMPH,WindSpeedGustMPH,Humidity,HourlyPrecipIn,Conditions,Clouds,dailyrainin,SolarRadiationWatts/m^2,SoftwareType,DateUTC
2013-01-28 06:50:00,0.0,0.0,29.76,ENE,68,2.5,2.7,0,-99.99,,---,-99.99,0.00,VWS V14.01,2013-01-28 12:50:00,
2013-01-28 06:52:00,42.8,36.8,29.76,ENE,68,2.9,2.9,79,-99.99,,---,-99.99,0.00,VWS V14.01,2013-01-28 12:52:00,
2013-01-28 06:56:00,42.8,37.1,29.76,ENE,68,2.5,2.5,80,-99.99,,---,-99.99,0.00,VWS V14.01,2013-01-28 12:56:00,
2013-01-28 06:57:00,42.8,37.1,29.76,ENE,68,1.3,1.6,80,-99.99,,---,-99.99,0.00,VWS V14.01,2013-01-28 12:57:00,
2013-01-28 07:03:00,42.8,37.1,29.76,ENE,68,3.1,3.1,80,-99.99,,---,-99.99,0.00,VWS V14.01,2013-01-28 13:03:00,
2013-01-28 07:09:00,42.6,37.2,29.79,NE,45,1.6,1.6,81,-99.99,,---,-99.99,0.00,VWS V14.01,2013-01-28 13:09:00,
2013-01-28 07:14:00,42.6,37.2,29.79,ENE,68,2.9,2.9,81,-99.99,,---,-99.99,0.00,VWS V14.01,2013-01-28 13:14:00,
2013-01-28 07:20:00,42.6,37.2,29.79,ENE,68,3.6,3.6,81,-99.99,,---,-99.99,0.00,VWS V14.01,2013-01-28 13:20:00,
2013-01-28 07:26:00,42.4,37.0,29.79,East,90,2.9,2.9,81,-99.99,,---,-99.99,0.00,VWS V14.01,2013-01-28 13:26:00,
2013-01-28 07:31:00,42.4,37.3,29.79,ENE,68,2.5,2.9,82,-99.99,,---,-99.99,0.00,VWS V14.01,2013-01-28 13:31:00,
2013-01-28 07:37:00,42.4,37.3,29.79,ENE,68,2.9,2.9,82,-99.99,,---,-99.99,0.00,VWS V14.01,2013-01-28 13:37:00,
2013-01-28 07:43:00,42.3,37.2,29.79,ENE,68,1.3,2.7,82,-99.99,,---,-99.99,0.00,VWS V14.01,2013-01-28 13:43:00,
2013-01-28 07:49:00,42.1,37.0,29.79,ENE,68,1.3,1.3,82,-99.99,,---,-99.99,0.00,VWS V14.01,2013-01-28 13:49:00,
2013-01-28 07:55:00,42.1,37.0,29.79,ENE,68,2.2,2.2,82,-99.99,,---,-99.99,0.00,VWS V14.01,2013-01-28 13:55:00,
2013-01-28 08:01:00,41.9,36.8,29.79,ENE,68,1.3,1.3,82,-99.99,,---,-99.99,0.00,VWS V14.01,2013-01-28 14:01:00,
2013-01-28 08:06:00,41.9,36.8,29.79,ENE,68,2.7,2.7,82,-99.99,,---,-99.99,0.00,VWS V14.01,2013-01-28 14:06:00,
2013-01-28 08:12:00,41.9,36.8,29.79,ENE,68,3.4,3.6,82,-99.99,,---,-99.99,0.00,VWS V14.01,2013-01-28 14:12:00,
2013-01-28 08:17:00,41.9,37.1,29.79,ENE,68,2.7,2.7,83,-99.99,,---,-99.99,0.00,VWS V14.01,2013-01-28 14:17:00,
2013-01-28 08:22:00,42.1,37.3,29.79,ENE,68,1.3,1.6,83,-99.99,,---,-99.99,0.00,VWS V14.01,2013-01-28 14:22:00,
2013-01-28 08:28:00,42.1,37.6,29.79,ENE,68,2.7,2.7,84,-99.99,,---,-99.99,0.00,VWS V14.01,2013-01-28 14:28:00,
2013-01-28 08:34:00,42.1,37.9,29.79,ENE,68,0.0,2.0,85,-99.99,,---,-99.99,0.00,VWS V14.01,2013-01-28 14:34:00,
2013-01-28 08:39:00,42.1,37.9,29.79,ENE,68,2.0,2.0,85,-99.99,,---,-99.99,0.00,VWS V14.01,2013-01-28 14:39:00,
2013-01-28 08:45:00,42.3,38.1,29.79,ENE,68,2.0,2.5,85,-99.99,,---,-99.99,0.00,VWS V14.01,2013-01-28 14:45:00,
2013-01-28 08:50:00,42.3,38.1,29.79,ENE,68,2.9,2.9,85,-99.99,,---,-99.99,0.00,VWS V14.01,2013-01-28 14:50:00,
2013-01-28 08:55:00,42.3,38.4,29.79,ENE,68,3.4,3.8,86,-99.99,,---,-99.99,0.00,VWS V14.01,2013-01-28 14:55:00,
2013-01-28 09:01:00,42.3,38.4,29.79,ENE,68,2.9,2.9,86,-99.99,,---,-99.99,0.00,VWS V14.01,2013-01-28 15:01:00,
2013-01-28 09:07:00,42.3,38.4,29.79,ENE,68,3.4,3.4,86,-99.99,,---,-99.99,0.00,VWS V14.01,2013-01-28 15:07:00,
2013-01-28 09:13:00,42.3,38.4,29.79,East,90,3.1,3.1,86,-99.99,,---,-99.99,0.00,VWS V14.01,2013-01-28 15:13:00,
2013-01-28 09:19:00,42.3,38.4,29.79,ENE,68,4.7,4.7,86,-99.99,,---,-99.99,0.00,VWS V14.01,2013-01-28 15:19:00,
2013-01-28 09:25:00,42.4,38.8,29.79,ENE,68,2.7,2.7,87,-99.99,,---,-99.99,0.00,VWS V14.01,2013-01-28 15:25:00,
2013-01-28 09:30:00,42.4,38.8,29.79,ENE,68,4.0,4.0,87,-99.99,,---,-99.99,0.00,VWS V14.01,2013-01-28 15:30:00,
2013-01-28 09:35:00,42.4,38.8,29.79,ENE,68,3.6,3.6,87,-99.99,,---,-99.99,0.00,VWS V14.01,2013-01-28 15:35:00,
2013-01-28 09:41:00,42.6,39.3,29.79,East,90,2.7,2.9,88,-99.99,,---,-99.99,0.00,VWS V14.01,2013-01-28 15:41:00,
2013-01-28 09:46:00,42.8,39.5,29.79,East,90,3.4,3.4,88,-99.99,,---,-99.99,0.00,VWS V14.01,2013-01-28 15:46:00,
2013-01-28 09:51:00,42.8,39.5,29.79,East,90,2.7,2.9,88,-99.99,,---,-99.99,0.00,VWS V14.01,2013-01-28 15:51:00,
2013-01-28 09:57:00,43.0,40.0,29.79,ENE,68,4.9,4.9,89,-99.99,,---,-99.99,0.00,VWS V14.01,2013-01-28 15:57:00,
2013-01-28 10:03:00,43.3,40.6,29.79,East,90,5.8,5.8,90,-99.99,,---,-99.99,0.00,VWS V14.01,2013-01-28 16:03:00,
2013-01-28 10:08:00,43.5,40.8,29.76,East,90,4.0,4.0,90,-99.99,,---,-99.99,0.00,VWS V14.01,2013-01-28 16:08:00,
2013-01-28 10:14:00,43.9,41.7,29.76,East,90,2.9,3.6,92,-99.99,,---,-99.99,0.00,VWS V14.01,2013-01-28 16:14:00,
2013-01-28 10:20:00,44.2,42.3,29.79,East,90,2.7,2.9,93,-99.99,,---,-99.99,0.00,VWS V14.01,2013-01-28 16:20:00,
2013-01-28 10:26:00,44.6,42.7,29.79,ENE,68,4.0,4.0,93,-99.99,,---,-99.99,0.00,VWS V14.01,2013-01-28 16:26:00,
2013-01-28 10:32:00,44.8,42.9,29.79,ENE,68,3.8,3.8,93,-99.99,,---,-99.99,0.00,VWS V14.01,2013-01-28 16:32:00,
2013-01-28 10:37:00,45.3,43.7,29.79,ESE,112,3.8,4.7,94,-99.99,,---,-99.99,0.00,VWS V14.01,2013-01-28 16:37:00,
2013-01-28 10:43:00,45.7,44.3,29.79,East,90,3.4,3.4,95,-99.99,,---,-99.99,0.00,VWS V14.01,2013-01-28 16:43:00,
2013-01-28 10:49:00,45.9,44.8,29.79,ESE,112,2.9,3.1,96,-99.99,,---,-99.99,0.00,VWS V14.01,2013-01-28 16:49:00,
2013-01-28 10:54:00,46.4,45.3,29.79,ENE,68,2.9,3.6,96,-99.99,,---,-99.99,0.00,VWS V14.01,2013-01-28 16:54:00,
2013-01-28 10:59:00,46.6,45.5,29.79,East,90,3.8,4.5,96,-99.99,,---,-99.99,0.00,VWS V14.01,2013-01-28 16:59:00,
2013-01-28 11:05:00,46.8,45.7,29.79,East,90,3.1,3.1,96,-99.99,,---,-99.99,0.00,VWS V14.01,2013-01-28 17:05:00,
2013-01-28 11:11:00,47.3,46.5,29.79,East,90,4.9,4.9,97,-99.99,,---,-99.99,0.00,VWS V14.01,2013-01-28 17:11:00,
2013-01-28 11:16:00,47.3,46.5,29.79,ESE,112,4.9,4.9,97,-99.99,,---,-99.99,0.00,VWS V14.01,2013-01-28 17:16:00,
2013-01-28 11:21:00,47.8,47.0,29.79,ESE,112,4.3,4.3,97,-99.99,,---,-99.99,0.00,VWS V14.01,2013-01-28 17:21:00,
2013-01-28 11:26:00,48.2,47.4,29.79,ESE,112,2.9,4.3,97,-99.99,,---,-99.99,0.00,VWS V14.01,2013-01-28 17:26:00,
2013-01-28 11:32:00,48.2,47.4,29.79,East,90,3.1,4.0,97,-99.99,,---,-99.99,0.00,VWS V14.01,2013-01-28 17:32:00,
2013-01-28 11:37:00,48.7,48.2,29.79,East,90,3.4,3.4,98,-99.99,,---,-99.99,0.00,VWS V14.01,2013-01-28 17:37:00,
2013-01-28 11:42:00,49.3,48.7,29.79,ENE,68,2.7,2.9,98,-99.99,,---,-99.99,0.00,VWS V14.01,2013-01-28 17:42:00,
2013-01-28 11:47:00,49.6,49.1,29.79,ESE,112,4.0,4.0,98,-99.99,,---,-99.99,0.00,VWS V14.01,2013-01-28 17:47:00,
2013-01-28 11:52:00,49.6,49.1,29.76,ESE,112,4.0,4.0,98,-99.99,,---,-99.99,0.00,VWS V14.01,2013-01-28 17:52:00,
2013-01-28 11:58:00,50.2,49.6,29.76,ESE,112,3.1,3.6,98,-99.99,,---,-99.99,0.00,VWS V14.01,2013-01-28 17:58:00,
2013-01-28 12:03:00,50.4,49.8,29.76,ESE,112,4.9,4.9,98,-99.99,,---,-99.99,0.00,VWS V14.01,2013-01-28 18:03:00,
2013-01-28 12:09:00,50.7,50.2,29.76,ESE,112,4.9,4.9,98,-99.99,,---,-99.99,0.00,VWS V14.01,2013-01-28 18:09:00,
2013-01-28 12:15:00,51.6,51.1,29.76,ESE,112,2.9,4.3,98,-99.99,,---,-99.99,0.00,VWS V14.01,2013-01-28 18:15:00,
2013-01-28 12:21:00,52.5,52.0,29.74,ESE,112,2.0,5.4,98,-99.99,,---,-99.99,0.00,VWS V14.01,2013-01-28 18:21:00,
2013-01-28 12:26:00,52.5,52.0,29.74,East,90,2.0,2.9,98,-99.99,,---,-99.99,0.00,VWS V14.01,2013-01-28 18:26:00,
2013-01-28 12:31:00,54.3,53.8,29.74,ESE,112,3.4,3.4,98,-99.99,,---,-99.99,0.00,VWS V14.01,2013-01-28 18:31:00,
2013-01-28 12:37:00,54.3,53.8,29.74,ESE,112,2.9,2.9,98,-99.99,,---,-99.99,0.00,VWS V14.01,2013-01-28 18:37:00,
2013-01-28 12:43:00,56.8,56.3,29.71,ESE,112,6.0,6.0,98,-99.99,,---,-99.99,0.00,VWS V14.01,2013-01-28 18:43:00,
2013-01-28 12:49:00,57.6,57.0,29.71,ESE,112,4.0,4.0,98,-99.99,,---,-99.99,0.00,VWS V14.01,2013-01-28 18:49:00,
2013-01-28 12:54:00,57.9,57.4,29.74,East,90,3.4,3.4,98,-99.99,,---,-99.99,0.00,VWS V14.01,2013-01-28 18:54:00,
2013-01-28 13:00:00,59.2,58.6,29.74,ESE,112,4.7,6.5,98,-99.99,,---,-99.99,0.00,VWS V14.01,2013-01-28 19:00:00,
2013-01-28 13:06:00,60.3,59.7,29.74,East,90,3.4,3.4,98,-99.99,,---,-99.99,0.00,VWS V14.01,2013-01-28 19:06:00,
2013-01-28 13:11:00,61.2,60.6,29.74,East,90,3.6,5.6,98,-99.99,,---,-99.99,0.00,VWS V14.01,2013-01-28 19:11:00,
2013-01-28 13:17:00,62.8,61.9,29.74,SE,135,4.3,7.2,97,-99.99,,---,-99.99,0.00,VWS V14.01,2013-01-28 19:17:00,
2013-01-28 13:23:00,63.1,61.1,29.74,ESE,112,6.3,6.3,93,-99.99,,---,-99.99,0.00,VWS V14.01,2013-01-28 19:23:00,
2013-01-28 13:29:00,64.0,58.8,29.74,SE,135,7.4,7.4,83,-99.99,,---,-99.99,0.00,VWS V14.01,2013-01-28 19:29:00,
2013-01-28 13:35:00,65.3,57.9,7.59,SSE,158,4.3,7.6,77,-99.99,,---,-99.99,0.00,VWS V14.01,2013-01-28 19:35:00,
2013-01-28 13:41:00,65.3,57.9,29.74,SSE,158,7.4,7.4,77,-99.99,,---,-99.99,0.00,VWS V14.01,2013-01-28 19:41:00,
2013-01-28 13:47:00,66.2,54.5,29.74,SE,135,7.6,7.6,66,-99.99,,---,-99.99,0.00,VWS V14.01,2013-01-28 19:47:00,
2013-01-28 13:53:00,66.6,48.4,29.71,SSE,158,10.1,10.1,52,-99.99,,---,-99.99,0.00,VWS V14.01,2013-01-28 19:53:00,
2013-01-28 13:59:00,66.6,48.4,29.71,SSE,158,6.3,6.3,52,-99.99,,---,-99.99,0.00,VWS V14.01,2013-01-28 19:59:00,
2013-01-28 14:05:00,68.4,49.0,29.71,SSW,202,2.9,7.6,50,-99.99,,---,-99.99,0.00,VWS V14.01,2013-01-28 20:05:00,
2013-01-28 14:11:00,68.7,47.1,29.71,South,180,7.6,8.5,46,-99.99,,---,-99.99,0.00,VWS V14.01,2013-01-28 20:11:00,
2013-01-28 14:17:00,69.1,40.3,29.71,South,180,4.9,4.9,35,-99.99,,---,-99.99,0.00,VWS V14.01,2013-01-28 20:17:00,
2013-01-28 14:23:00,69.3,38.2,29.68,SSE,158,8.7,14.3,32,-99.99,,---,-99.99,0.00,VWS V14.01,2013-01-28 20:23:00,
2013-01-28 14:29:00,69.8,35.3,29.68,South,180,10.1,10.1,28,-99.99,,---,-99.99,0.00,VWS V14.01,2013-01-28 20:29:00,
2013-01-28 14:35:00,70.0,37.2,29.68,SSE,158,7.4,7.4,30,-99.99,,---,-99.99,0.00,VWS V14.01,2013-01-28 20:35:00,
2013-01-28 14:41:00,70.7,33.2,29.68,South,180,7.4,10.7,25,-99.99,,---,-99.99,0.00,VWS V14.01,2013-01-28 20:41:00,
2013-01-28 14:47:00,70.7,31.1,29.68,South,180,10.3,11.0,23,-99.99,,---,-99.99,0.00,VWS V14.01,2013-01-28 20:47:00,
2013-01-28 14:53:00,71.1,31.4,29.68,SSW,202,10.1,10.5,23,-99.99,,---,-99.99,0.00,VWS V14.01,2013-01-28 20:53:00,
2013-01-28 14:59:00,71.1,30.3,29.68,SSE,158,8.5,8.5,22,-99.99,,---,-99.99,0.00,VWS V14.01,2013-01-28 20:59:00,
2013-01-28 15:05:00,71.1,30.3,29.68,South,180,10.1,10.1,22,-99.99,,---,-99.99,0.00,VWS V14.01,2013-01-28 21:05:00,
2013-01-28 15:10:00,71.2,30.5,29.68,SSW,202,10.7,10.7,22,-99.99,,---,-99.99,0.00,VWS V14.01,2013-01-28 21:10:00,
2013-01-28 15:16:00,71.4,30.6,29.68,SSE,158,13.0,13.4,22,-99.99,,---,-99.99,0.00,VWS V14.01,2013-01-28 21:16:00,
2013-01-28 15:21:00,71.6,30.8,29.68,SSW,202,7.8,7.8,22,-99.99,,---,-99.99,0.00,VWS V14.01,2013-01-28 21:21:00,
2013-01-28 15:26:00,71.8,29.8,29.68,SSE,158,7.8,8.1,21,-99.99,,---,-99.99,0.00,VWS V14.01,2013-01-28 21:26:00,
2013-01-28 15:32:00,71.8,29.8,29.68,South,180,7.8,7.8,21,-99.99,,---,-99.99,0.00,VWS V14.01,2013-01-28 21:32:00,
2013-01-28 15:38:00,72.1,27.6,29.68,SSW,202,8.1,10.5,19,-99.99,,---,-99.99,0.00,VWS V14.01,2013-01-28 21:38:00,
2013-01-28 15:44:00,72.1,27.6,29.68,South,180,11.0,11.0,19,-99.99,,---,-99.99,0.00,VWS V14.01,2013-01-28 21:44:00,
2013-01-28 15:49:00,72.1,27.6,29.68,South,180,14.8,14.8,19,-99.99,,---,-99.99,0.00,VWS V14.01,2013-01-28 21:49:00,
2013-01-28 15:55:00,72.0,27.5,29.68,SSW,202,8.1,8.1,19,-99.99,,---,-99.99,0.00,VWS V14.01,2013-01-28 21:55:00,
2013-01-28 16:00:00,71.8,27.3,29.68,SSW,202,7.6,7.6,19,-99.99,,---,-99.99,0.00,VWS V14.01,2013-01-28 22:00:00,
2013-01-28 16:05:00,71.6,27.2,29.68,SSW,202,8.7,13.6,19,-99.99,,---,-99.99,0.00,VWS V14.01,2013-01-28 22:05:00,
2013-01-28 16:10:00,71.6,27.2,29.68,SSW,202,9.8,9.8,19,-99.99,,---,-99.99,0.00,VWS V14.01,2013-01-28 22:10:00,
2013-01-28 16:16:00,71.6,27.2,29.65,South,180,7.8,7.8,19,-99.99,,---,-99.99,0.00,VWS V14.01,2013-01-28 22:16:00,
2013-01-28 16:22:00,71.1,26.8,29.65,SSW,202,10.5,10.5,19,-99.99,,---,-99.99,0.00,VWS V14.01,2013-01-28 22:22:00,
2013-01-28 16:28:00,70.5,26.3,29.65,South,180,8.5,8.5,19,-99.99,,---,-99.99,0.00,VWS V14.01,2013-01-28 22:28:00,
2013-01-28 16:34:00,70.2,26.0,29.65,SSW,202,7.6,17.0,19,-99.99,,---,-99.99,0.00,VWS V14.01,2013-01-28 22:34:00,
2013-01-28 16:39:00,70.0,29.4,29.65,South,180,9.2,9.2,22,-99.99,,---,-99.99,0.00,VWS V14.01,2013-01-28 22:39:00,
2013-01-28 16:45:00,69.6,29.1,29.65,South,180,10.3,10.3,22,-99.99,,---,-99.99,0.00,VWS V14.01,2013-01-28 22:45:00,
2013-01-28 16:50:00,69.3,28.8,29.62,SSW,202,10.1,10.1,22,-99.99,,---,-99.99,0.00,VWS V14.01,2013-01-28 22:50:00,
2013-01-28 16:55:00,68.9,28.5,29.62,South,180,6.9,6.9,22,-99.99,,---,-99.99,0.00,VWS V14.01,2013-01-28 22:55:00,
2013-01-28 17:00:00,68.7,28.4,29.62,SSW,202,6.5,8.1,22,-99.99,,---,-99.99,0.00,VWS V14.01,2013-01-28 23:00:00,
2013-01-28 17:06:00,68.5,29.3,29.62,SSW,202,8.7,8.7,23,-99.99,,---,-99.99,0.00,VWS V14.01,2013-01-28 23:06:00,
2013-01-28 17:11:00,68.4,29.1,29.62,South,180,4.3,8.7,23,-99.99,,---,-99.99,0.00,VWS V14.01,2013-01-28 23:11:00,
2013-01-28 17:17:00,68.0,28.9,29.62,South,180,6.5,7.2,23,-99.99,,---,-99.99,0.00,VWS V14.01,2013-01-28 23:17:00,
2013-01-28 17:23:00,67.6,29.6,29.62,South,180,8.7,8.7,24,-99.99,,---,-99.99,0.00,VWS V14.01,2013-01-28 23:23:00,
2013-01-28 17:28:00,67.5,29.4,29.62,SSE,158,10.5,10.5,24,-99.99,,---,-99.99,0.00,VWS V14.01,2013-01-28 23:28:00,
2013-01-28 17:33:00,67.5,29.4,29.62,South,180,9.2,9.2,24,-99.99,,---,-99.99,0.00,VWS V14.01,2013-01-28 23:33:00,
2013-01-28 17:39:00,67.3,29.3,29.62,South,180,8.7,8.7,24,-99.99,,---,-99.99,0.00,VWS V14.01,2013-01-28 23:39:00,
2013-01-28 17:44:00,67.1,29.1,29.62,SSE,158,7.8,7.8,24,-99.99,,---,-99.99,0.00,VWS V14.01,2013-01-28 23:44:00,
2013-01-28 17:50:00,67.1,29.1,29.62,SSE,158,4.9,4.9,24,-99.99,,---,-99.99,0.00,VWS V14.01,2013-01-28 23:50:00,
2013-01-28 17:56:00,66.9,29.0,29.62,SSE,158,8.7,8.7,24,-99.99,,---,-99.99,0.00,VWS V14.01,2013-01-28 23:56:00,
2013-01-28 18:01:00,66.6,29.7,29.62,SSE,158,5.8,5.8,25,-99.99,,---,-99.99,0.00,VWS V14.01,2013-01-29 00:01:00,
2013-01-28 18:07:00,66.2,29.4,29.62,SSE,158,7.2,7.2,25,-99.99,,---,-99.99,0.00,VWS V14.01,2013-01-29 00:07:00,
2013-01-28 18:12:00,66.2,30.3,29.62,SE,135,5.4,7.6,26,-99.99,,---,-99.99,0.00,VWS V14.01,2013-01-29 00:12:00,
2013-01-28 18:17:00,66.0,30.2,29.62,South,180,5.4,8.7,26,-99.99,,---,-99.99,0.00,VWS V14.01,2013-01-29 00:17:00,
2013-01-28 18:23:00,65.8,31.0,29.62,SSE,158,4.9,6.3,27,-99.99,,---,-99.99,0.00,VWS V14.01,2013-01-29 00:23:00,
2013-01-28 18:29:00,65.8,31.0,29.62,South,180,7.8,7.8,27,-99.99,,---,-99.99,0.00,VWS V14.01,2013-01-29 00:29:00,
2013-01-28 18:34:00,65.8,32.7,29.62,SSE,158,11.2,11.2,29,-99.99,,---,-99.99,0.00,VWS V14.01,2013-01-29 00:34:00,
2013-01-28 18:41:00,66.0,33.7,29.62,SSE,158,6.3,6.3,30,-99.99,,---,-99.99,0.00,VWS V14.01,2013-01-29 00:41:00,
2013-01-28 18:46:00,66.0,34.5,29.62,South,180,7.8,7.8,31,-99.99,,---,-99.99,0.00,VWS V14.01,2013-01-29 00:46:00,
2013-01-28 18:53:00,66.2,35.5,29.62,SSW,202,7.8,7.8,32,-99.99,,---,-99.99,0.00,VWS V14.01,2013-01-29 00:53:00,
2013-01-28 18:58:00,66.2,34.7,29.62,SSE,158,7.8,8.5,31,-99.99,,---,-99.99,0.00,VWS V14.01,2013-01-29 00:58:00,
2013-01-28 19:03:00,66.2,34.7,29.62,SSE,158,9.6,9.6,31,-99.99,,---,-99.99,0.00,VWS V14.01,2013-01-29 01:03:00,